EW9356 Weather Reports


time (UTC)temp
F
wind
direction
speed
knots
gust
knots
rain 1hr
in
rain 24hr
in
rain mn
in
humidity
%
barometer
mb
20260507012514 50 229 6.1 7.8 0.00 0.06 0.06 98 1008.6
20260507012012 50 218 5.2 8.7 0.00 0.06 0.06 97 1008.7
20260507011536 51 217 6.1 10.4 0.00 0.06 0.06 98 1008.7
20260507011012 51 228 7.8 10.4 0.00 0.06 0.06 98 1008.7
20260507010512 51 232 7.8 9.6 0.00 0.06 0.06 98 1008.7
20260507010040 51 232 7.8 9.6 0.00 0.06 0.06 98 1008.5
20260507005513 51 236 7.8 9.6 0.00 0.06 0.06 98 1008.6
20260507005019 51 250 7.8 8.7 0.00 0.06 0.06 97 1008.6
20260507004535 51 219 5.2 10.4 0.00 0.06 0.06 97 1008.3
20260507004012 51 211 7.8 9.6 0.00 0.06 0.06 97 1008.8
20260507003512 52 203 8.7 10.4 0.00 0.06 0.06 97 1008.8
20260507003033 52 231 9.6 13.9 0.00 0.06 0.06 97 1008.9
20260507002511 52 220 10.4 13.9 0.00 0.06 0.06 97 1008.9
20260507002012 52 239 10.4 14.8 0.00 0.06 0.06 98 1008.9
20260507001536 52 240 11.3 15.6 0.00 0.06 0.06 98 1008.8
20260507001013 52 234 13.0 15.6 0.00 0.06 0.06 98 1008.8
20260507000511 53 230 12.2 15.6 0.00 0.06 0.06 98 1008.7
20260507000029 53 237 10.4 14.8 0.00 0.06 0.06 98 1008.5
20260506235516 52 225 7.8 15.6 0.00 0.06 0.06 98 1008.6
20260506235010 52 226 10.4 16.5 0.00 0.06 0.06 97 1008.5
20260506234529 53 207 12.2 16.5 0.00 0.06 0.06 98 1008.2
20260506234012 53 216 12.2 14.8 0.00 0.06 0.06 98 1008.5
20260506233513 53 256 8.7 13.0 0.00 0.06 0.06 98 1008.6
20260506233030 52 265 10.4 16.5 0.00 0.06 0.06 98 1008.8
20260506232513 52 211 12.2 19.1 0.00 0.06 0.06 98 1008.2
20260506232013 53 204 15.6 19.1 0.00 0.06 0.06 98 1008.0
20260506231536 52 211 12.2 13.9 0.00 0.06 0.06 98 1008.4
20260506231012 52 261 8.7 13.0 0.00 0.06 0.06 98 1008.5
20260506230512 52 235 8.7 16.5 0.00 0.06 0.06 97 1008.2
20260506230033 52 217 10.4 18.2 0.00 0.06 0.06 98 1008.4
20260506225515 52 203 13.0 18.2 0.00 0.06 0.06 98 1008.0
20260506225018 52 192 13.9 19.1 0.00 0.06 0.06 97 1008.0
20260506224531 52 187 14.8 19.1 0.00 0.06 0.06 97 1007.9
20260506224012 52 192 15.6 20.9 0.00 0.06 0.06 98 1007.9
20260506223512 52 198 15.6 20.9 0.00 0.06 0.06 98 1007.7
20260506223035 52 182 15.6 18.2 0.00 0.06 0.06 98 1007.9
20260506222514 52 196 13.9 17.4 0.00 0.06 0.06 98 1007.8
20260506222012 52 181 13.0 18.2 0.00 0.06 0.06 98 1007.9
20260506221530 52 191 12.2 15.6 0.00 0.06 0.06 98 1007.9
20260506221010 52 192 12.2 15.6 0.01 0.06 0.06 97 1008.0
20260506220511 52 199 10.4 13.0 0.01 0.06 0.06 97 1007.9
20260506220030 51 187 10.4 13.9 0.02 0.06 0.06 97 1007.9
20260506215512 51 184 9.6 13.0 0.02 0.06 0.06 97 1008.0
20260506215012 51 175 8.7 10.4 0.03 0.06 0.06 97 1008.0
20260506214532 51 182 8.7 10.4 0.03 0.06 0.06 97 1007.7
20260506214018 52 164 8.7 13.9 0.04 0.06 0.06 97 1008.0
20260506213517 52 179 9.6 15.6 0.04 0.06 0.06 97 1007.9
20260506213029 52 180 12.2 15.6 0.04 0.06 0.06 97 1008.1
20260506212512 52 192 11.3 14.8 0.04 0.06 0.06 97 1007.9
20260506212015 52 186 11.3 16.5 0.04 0.06 0.06 96 1007.9
20260506211532 52 180 11.3 14.8 0.04 0.06 0.06 96 1008.3
20260506211013 52 192 11.3 17.4 0.04 0.04 0.04 96 1008.1
20260506210513 53 193 13.0 17.4 0.04 0.04 0.04 96 1008.1
20260506210036 53 179 14.8 19.1 0.03 0.04 0.04 96 1008.2
20260506205512 53 181 14.8 19.1 0.03 0.04 0.04 95 1007.8
20260506205011 53 176 15.6 24.3 0.02 0.03 0.03 95 1008.0
20260506204536 53 187 18.2 24.3 0.02 0.03 0.03 95 1008.1
20260506204013 53 184 17.4 24.3 0.01 0.02 0.02 94 1008.4
20260506203512 53 188 16.5 21.7 0.01 0.02 0.02 94 1008.3
20260506203040 53 167 15.6 20.9 0.00 0.01 0.01 94 1008.3
20260506202512 53 162 16.5 20.9 0.00 0.01 0.01 94 1008.2
20260506202012 53 178 18.2 22.6 0.00 0.01 0.01 94 1008.2
20260506201540 53 173 19.1 24.3 0.00 0.01 0.01 94 1008.0
20260506201013 53 182 20.0 24.3 0.00 0.01 0.01 94 1007.9
20260506200513 53 164 19.1 24.3 0.00 0.01 0.01 94 1007.9
20260506200039 53 180 19.1 20.9 0.00 0.01 0.01 94 1008.0
20260506195516 53 182 17.4 20.9 0.00 0.01 0.01 94 1008.3
20260506195014 53 169 16.5 22.6 0.00 0.01 0.01 94 1008.2
20260506194535 53 191 16.5 20.9 0.00 0.01 0.01 94 1008.5
20260506194013 53 167 16.5 20.9 0.00 0.01 0.01 93 1008.5
20260506193513 53 167 15.6 20.9 0.00 0.01 0.01 93 1008.6
20260506193035 53 187 16.5 20.9 0.01 0.01 0.01 93 1008.4
20260506192512 53 175 16.5 20.0 0.01 0.01 0.01 93 1008.8
20260506192017 53 190 18.2 20.9 0.01 0.01 0.01 93 1008.6
20260506191543 53 175 19.1 22.6 0.01 0.01 0.01 93 1008.6
20260506191014 53 171 19.1 23.5 0.01 0.01 0.01 93 1008.8
20260506190515 53 171 19.1 22.6 0.01 0.01 0.01 93 1008.6
20260506190043 53 174 20.0 24.3 0.01 0.01 0.01 93 1008.8
20260506185513 53 173 20.9 24.3 0.01 0.01 0.01 93 1008.6
20260506185013 53 172 19.1 24.3 0.01 0.01 0.01 93 1008.9
20260506184546 53 167 20.0 24.3 0.01 0.01 0.01 93 1008.8
20260506184018 53 169 19.1 22.6 0.01 0.01 0.01 93 1009.0
20260506183514 53 160 19.1 22.6 0.01 0.01 0.01 93 1008.9
20260506183033 53 169 18.2 23.5 0.00 0.00 0.00 92 1009.1
20260506182511 53 181 17.4 24.3 0.00 0.00 0.00 92 1009.5
20260506182011 53 178 18.2 24.3 0.00 0.00 0.00 92 1009.4
20260506181535 53 175 18.2 22.6 0.00 0.00 0.00 92 1009.3
20260506181015 53 189 19.1 22.6 0.00 0.00 0.00 92 1009.4
20260506180515 54 183 17.4 20.9 0.00 0.00 0.00 92 1009.5
20260506180046 54 177 18.2 24.3 0.00 0.00 0.00 92 1009.5
20260506175513 54 180 17.4 25.2 0.00 0.00 0.00 92 1009.5
20260506175012 54 184 17.4 25.2 0.00 0.00 0.00 92 1010.0
20260506174534 54 186 17.4 25.2 0.00 0.00 0.00 92 1010.0
20260506174012 54 173 18.2 26.9 0.00 0.00 0.00 91 1010.2
20260506173512 54 175 19.1 25.2 0.00 0.00 0.00 91 1010.1
20260506173104 54 187 20.9 27.8 0.00 0.00 0.00 91 1009.9
20260506172511 54 178 23.5 28.7 0.00 0.00 0.00 91 1009.5
20260506172013 54 175 22.6 30.4 0.00 0.00 0.00 91 1009.7
20260506171536 54 171 23.5 30.4 0.00 0.00 0.00 91 1009.6
20260506171012 54 173 21.7 28.7 0.00 0.00 0.00 91 1009.8
20260506170513 54 173 24.3 28.7 0.00 0.00 0.00 91 1009.8
20260506170040 54 160 23.5 29.5 0.00 0.00 0.00 91 1009.7
20260506165514 54 180 21.7 24.3 0.00 0.00 0.00 91 1010.0
20260506165014 54 175 20.9 24.3 0.00 0.00 0.00 91 1010.0
20260506164536 54 171 20.9 26.9 0.00 0.00 0.00 91 1010.2
20260506164014 54 198 20.9 25.2 0.00 0.00 0.00 91 1010.3
20260506163514 54 180 21.7 24.3 0.00 0.00 0.00 91 1010.5
20260506163038 54 180 20.9 27.8 0.00 0.00 0.00 91 1010.5
20260506162512 54 173 20.9 27.8 0.00 0.00 0.00 91 1010.4
20260506162012 54 175 21.7 26.9 0.00 0.00 0.00 91 1010.4
20260506161535 55 169 21.7 26.9 0.00 0.00 0.00 90 1010.6
20260506161013 55 176 21.7 26.1 0.00 0.00 0.00 90 1010.7
20260506160515 55 184 20.0 26.1 0.00 0.00 0.00 90 1010.7
20260506160039 55 165 19.1 26.1 0.00 0.00 0.00 90 1010.9
20260506155514 55 198 20.0 28.7 0.00 0.00 0.00 90 1011.1
20260506155012 55 169 20.0 26.1 0.00 0.00 0.00 91 1011.1
20260506154537 55 193 19.1 25.2 0.00 0.00 0.00 91 1011.2
20260506154016 55 183 20.0 26.1 0.00 0.00 0.00 91 1010.9
20260506153514 54 178 20.9 25.2 0.00 0.00 0.00 91 1010.9
20260506153035 54 182 18.2 21.7 0.00 0.00 0.00 91 1011.0
20260506152512 54 190 18.2 24.3 0.00 0.00 0.00 91 1011.2
20260506152012 54 184 17.4 22.6 0.00 0.00 0.00 91 1011.1
20260506151535 54 188 17.4 21.7 0.00 0.00 0.00 91 1011.2
20260506151013 54 183 17.4 23.5 0.00 0.00 0.00 91 1011.3
20260506150512 54 187 16.5 21.7 0.00 0.00 0.00 90 1011.5
20260506150032 54 174 17.4 23.5 0.00 0.00 0.00 90 1011.5
20260506145512 55 183 18.2 23.5 0.00 0.00 0.00 90 1011.5
20260506145013 55 175 17.4 22.6 0.00 0.00 0.00 90 1011.6
20260506144540 55 175 17.4 21.7 0.00 0.00 0.00 90 1011.4
20260506144012 55 187 17.4 22.6 0.00 0.00 0.00 90 1011.4
20260506143513 55 197 18.2 22.6 0.00 0.00 0.00 90 1011.2
20260506143037 55 202 18.2 23.5 0.00 0.00 0.00 91 1011.1
20260506142518 55 192 17.4 23.5 0.00 0.00 0.00 91 1011.2
20260506142014 55 192 17.4 22.6 0.00 0.00 0.00 91 1011.4
20260506141537 54 179 17.4 23.5 0.00 0.00 0.00 91 1011.2
20260506141016 54 202 17.4 22.6 0.00 0.00 0.00 91 1011.4
20260506140515 54 192 16.5 22.6 0.00 0.00 0.00 91 1011.4
20260506140035 54 206 17.4 22.6 0.00 0.00 0.00 91 1011.4
20260506135513 54 196 18.2 22.6 0.00 0.00 0.00 91 1011.4
20260506135013 54 194 16.5 21.7 0.00 0.00 0.00 91 1011.5
20260506134535 54 190 16.5 20.9 0.00 0.00 0.00 91 1011.3
20260506134012 54 191 16.5 21.7 0.00 0.00 0.00 92 1011.5
20260506133518 54 185 15.6 20.9 0.00 0.00 0.00 92 1011.3
20260506133033 54 192 15.6 20.9 0.00 0.00 0.00 92 1011.3
20260506132522 54 188 15.6 20.9 0.00 0.00 0.00 91 1011.2
20260506132012 54 194 17.4 20.9 0.00 0.00 0.00 91 1011.2
20260506131545 54 190 15.6 20.0 0.00 0.00 0.00 91 1011.3
20260506131014 54 190 16.5 21.7 0.00 0.00 0.00 91 1011.4
20260506130514 54 199 17.4 21.7 0.00 0.00 0.00 91 1011.5
20260506130049 54 184 17.4 23.5 0.00 0.00 0.00 91 1011.3
20260506125513 54 186 18.2 23.5 0.00 0.00 0.00 91 1011.5
20260506125013 54 190 18.2 25.2 0.00 0.00 0.00 91 1011.4
20260506124535 54 178 18.2 24.3 0.00 0.00 0.00 91 1011.5
20260506124014 54 182 18.2 24.3 0.00 0.00 0.00 91 1011.6
20260506123515 54 192 19.1 27.8 0.00 0.00 0.00 91 1011.3
20260506123043 54 180 20.0 27.8 0.00 0.00 0.00 91 1011.5
20260506122514 54 173 20.0 25.2 0.00 0.00 0.00 91 1011.4
20260506122013 54 184 20.0 26.1 0.00 0.00 0.00 91 1011.4
20260506121539 54 184 20.0 26.1 0.00 0.00 0.00 91 1011.4
20260506121016 54 181 20.0 27.8 0.00 0.00 0.00 92 1011.4
20260506120515 54 198 19.1 24.3 0.00 0.00 0.00 92 1011.6
20260506120042 54 196 16.5 21.7 0.00 0.00 0.00 92 1011.7
20260506115516 54 196 15.6 20.0 0.00 0.00 0.00 92 1011.5
20260506115016 53 192 12.2 18.2 0.00 0.00 0.00 92 1011.9
20260506114542 53 224 11.3 16.5 0.00 0.00 0.00 92 1011.9
20260506114014 53 244 12.2 18.2 0.00 0.00 0.00 93 1011.7
20260506113514 53 212 13.9 19.1 0.00 0.00 0.00 93 1011.9
20260506113051 53 195 14.8 21.7 0.00 0.00 0.00 92 1011.7
20260506112514 53 212 14.8 21.7 0.00 0.00 0.00 92 1011.7
20260506112015 53 194 13.9 18.2 0.00 0.00 0.00 92 1011.6
20260506111543 53 206 13.0 16.5 0.00 0.00 0.00 92 1011.8
20260506111012 53 223 12.2 16.5 0.00 0.00 0.00 92 1011.8
20260506110514 53 197 13.0 16.5 0.00 0.00 0.00 92 1011.7
20260506110055 53 200 13.0 17.4 0.00 0.00 0.00 93 1011.6
20260506105514 53 185 13.0 17.4 0.00 0.00 0.00 93 1011.5
20260506105017 53 218 13.0 19.1 0.00 0.00 0.00 93 1011.8
20260506104551 53 207 14.8 20.9 0.00 0.00 0.00 93 1011.8
20260506104013 53 197 13.9 20.0 0.00 0.00 0.00 93 1011.8
20260506103514 53 194 16.5 21.7 0.00 0.00 0.00 93 1011.7
20260506103050 53 197 16.5 21.7 0.00 0.00 0.00 94 1011.4
20260506102515 53 205 15.6 19.1 0.00 0.00 0.00 94 1011.6
20260506102015 53 186 14.8 18.2 0.00 0.00 0.00 94 1011.5
20260506101553 53 212 14.8 18.2 0.00 0.00 0.00 94 1011.5
20260506101013 53 206 12.2 16.5 0.00 0.00 0.00 94 1011.4
20260506100515 53 209 11.3 15.6 0.00 0.00 0.00 94 1011.6
20260506100100 52 207 8.7 13.9 0.00 0.00 0.00 94 1011.7
20260506095513 52 205 8.7 13.0 0.00 0.00 0.00 94 1011.6
20260506095017 52 195 8.7 12.2 0.00 0.00 0.00 94 1011.5
20260506094538 52 221 8.7 12.2 0.00 0.00 0.00 94 1011.6
20260506094017 52 209 7.0 9.6 0.00 0.00 0.00 93 1011.7
20260506093513 53 217 6.1 10.4 0.00 0.00 0.00 94 1011.8
20260506093046 53 256 7.0 9.6 0.00 0.00 0.00 94 1011.9
20260506092512 53 243 7.8 9.6 0.00 0.00 0.00 94 1011.8
20260506092016 53 252 7.0 9.6 0.00 0.00 0.00 94 1011.9
20260506091542 53 249 6.1 8.7 0.00 0.00 0.00 94 1011.9
20260506091015 53 242 7.0 10.4 0.00 0.00 0.00 94 1011.9
20260506090514 53 254 6.1 10.4 0.00 0.00 0.00 94 1011.9
20260506090046 53 254 6.1 11.3 0.00 0.00 0.00 94 1011.9
20260506085513 54 227 8.7 12.2 0.00 0.00 0.00 94 1012.1
20260506085016 54 239 8.7 12.2 0.00 0.00 0.00 93 1012.3
20260506084605 54 232 7.8 13.0 0.00 0.00 0.00 93 1012.2
20260506084016 54 216 9.6 16.5 0.00 0.00 0.00 93 1012.4
20260506083515 54 206 13.0 21.7 0.00 0.00 0.00 93 1012.3
20260506083046 54 188 15.6 20.9 0.00 0.00 0.00 93 1012.3
20260506082514 54 189 17.4 26.1 0.00 0.00 0.00 93 1011.8
20260506082014 54 201 19.1 26.1 0.00 0.00 0.00 94 1011.8
20260506081550 54 173 17.4 24.3 0.00 0.00 0.00 94 1012.1
20260506081015 54 178 18.2 24.3 0.00 0.00 0.00 94 1012.0
20260506080514 54 208 16.5 22.6 0.00 0.00 0.00 94 1012.0
20260506073515 54 264 7.8 11.3 0.00 0.00 0.00 94 1012.4
20260506073046 53 240 7.8 11.3 0.00 0.00 0.00 94 1012.3
20260506072515 53 251 7.8 13.0 0.00 0.00 0.00 94 1012.3
20260506072015 53 238 7.8 13.0 0.00 0.00 0.00 94 1012.3
20260506071539 53 253 9.6 16.5 0.00 0.00 0.00 94 1012.2
20260506071018 53 256 11.3 16.5 0.00 0.00 0.00 93 1012.3
20260506070516 53 214 13.0 20.0 0.00 0.00 0.00 93 1012.1
20260506062514 53 197 13.9 19.1 0.00 0.00 0.00 94 1012.0
20260506062013 53 199 13.9 19.1 0.00 0.00 0.00 94 1012.2
20260506061541 53 209 13.9 18.2 0.00 0.00 0.00 94 1012.0
20260506061017 53 214 13.9 17.4 0.00 0.00 0.00 93 1011.9
20260506060517 53 211 12.2 17.4 0.00 0.00 0.00 93 1012.3
20260506051220 54 231 9.6 13.9 0.00 0.00 0.00 92 1012.9
20260506050720 54 232 8.7 13.0 0.00 0.00 0.00 92 1012.9
20260506045014 55 244 12.2 15.6 0.00 0.00 0.00 92 1013.2
20260506044615 55 234 13.0 16.5 0.00 0.00 0.00 92 1013.0
20260506044016 54 226 13.0 16.5 0.00 0.00 0.00 92 1012.8
20260506043511 54 236 13.9 17.4 0.00 0.00 0.00 92 1012.9
20260506043035 54 231 13.9 16.5 0.00 0.00 0.00 92 1012.9
20260506042514 55 225 13.0 16.5 0.00 0.00 0.00 92 1013.0
20260506042016 55 230 13.9 15.6 0.00 0.00 0.00 92 1012.9
20260506041536 55 232 13.9 18.2 0.00 0.00 0.00 92 1013.1
20260506041021 54 221 14.8 18.2 0.00 0.00 0.00 92 1012.8
20260506040511 54 225 13.9 18.2 0.00 0.00 0.00 92 1012.9
20260506040042 54 198 13.9 20.0 0.00 0.00 0.00 92 1013.0
20260506035514 54 217 14.8 17.4 0.00 0.00 0.00 92 1012.6
20260506035011 54 241 14.8 19.1 0.00 0.00 0.00 92 1012.8
20260506034601 54 223 15.6 19.1 0.00 0.00 0.00 91 1012.5
20260506034014 55 235 15.6 17.4 0.00 0.00 0.00 91 1012.9
20260506033515 55 230 15.6 20.0 0.00 0.00 0.00 91 1012.8
20260506033039 55 229 15.6 20.0 0.00 0.00 0.00 91 1013.0
20260506032513 55 242 13.9 17.4 0.00 0.00 0.00 91 1013.0
20260506032021 55 248 13.9 17.4 0.00 0.00 0.00 91 1012.9
20260506031544 55 234 13.0 15.6 0.00 0.00 0.00 91 1012.8
20260506031015 55 239 12.2 15.6 0.00 0.00 0.00 91 1012.9
20260506030512 55 242 12.2 15.6 0.00 0.00 0.00 91 1012.9
20260506030042 55 261 10.4 14.8 0.00 0.00 0.00 91 1013.0
20260506025513 55 252 11.3 14.8 0.00 0.00 0.00 91 1012.7
20260506025013 55 251 11.3 15.6 0.00 0.00 0.00 91 1012.5
20260506024544 54 238 11.3 15.6 0.00 0.00 0.00 92 1012.7
20260506024016 54 252 11.3 16.5 0.00 0.00 0.00 92 1012.8
20260506023516 54 232 12.2 17.4 0.00 0.00 0.00 92 1012.6
20260506023100 54 234 13.0 17.4 0.00 0.00 0.00 91 1012.9
20260506022515 54 240 13.9 18.2 0.00 0.00 0.00 91 1012.7
20260506022013 54 231 15.6 20.0 0.00 0.00 0.00 91 1012.5
20260506021537 54 231 15.6 21.7 0.00 0.00 0.00 90 1012.4
20260506021014 54 233 14.8 21.7 0.00 0.00 0.00 90 1012.3
20260506020514 54 211 16.5 21.7 0.00 0.00 0.00 90 1012.2
20260506020045 54 209 17.4 22.6 0.00 0.00 0.00 90 1012.2
20260506015519 54 197 17.4 22.6 0.00 0.00 0.00 90 1012.0
20260506015014 54 200 17.4 23.5 0.00 0.00 0.00 89 1012.3
20260506014543 54 198 17.4 24.3 0.00 0.00 0.00 89 1012.1
20260506014018 54 200 20.0 23.5 0.00 0.00 0.00 89 1011.9
20260506013513 54 216 19.1 23.5 0.00 0.00 0.00 89 1011.7
20260506013042 54 204 20.0 25.2 0.00 0.00 0.00 89 1011.7